| time (UTC) | temp F | wind direction | speed knots | gust knots | rain 1hr in | rain 24hr in | rain mn in | humidity % | barometer mb |
| 20260507095206 | 67 | 236 | 1.7 | 5.2 | 0.00 | 0.00 | 0.00 | 63 | 1010.6 |
| 20260507094706 | 66 | 223 | 0.9 | 6.1 | 0.00 | 0.00 | 0.00 | 64 | 1010.6 |
| 20260507094206 | 66 | 265 | 0.9 | 7.8 | 0.00 | 0.00 | 0.00 | 64 | 1010.6 |
| 20260507093706 | 66 | 213 | 0.9 | 7.8 | 0.00 | 0.00 | 0.00 | 65 | 1010.6 |
| 20260507093205 | 66 | 220 | 0.9 | 7.8 | 0.00 | 0.00 | 0.00 | 63 | 1010.7 |
| 20260507092206 | 66 | 221 | 2.6 | 7.8 | 0.00 | 0.00 | 0.00 | 64 | 1010.6 |
| 20260507091706 | 66 | 284 | 4.3 | 7.8 | 0.00 | 0.00 | 0.00 | 63 | 1010.5 |
| 20260507091232 | 67 | 279 | 3.5 | 7.8 | 0.00 | 0.00 | 0.00 | 63 | 1010.5 |
| 20260507090705 | 67 | 313 | 3.5 | 7.8 | 0.00 | 0.00 | 0.00 | 63 | 1010.3 |
| 20260507090206 | 67 | 291 | 1.7 | 6.1 | 0.00 | 0.00 | 0.00 | 62 | 1010.3 |
| 20260507085705 | 67 | 217 | 0.9 | 6.1 | 0.00 | 0.00 | 0.00 | 63 | 1010.3 |
| 20260507085205 | 67 | 246 | 1.7 | 7.8 | 0.00 | 0.00 | 0.00 | 63 | 1010.2 |
| 20260507084705 | 66 | 263 | 2.6 | 7.8 | 0.00 | 0.00 | 0.00 | 63 | 1010.2 |
| 20260507084206 | 66 | 285 | 2.6 | 7.8 | 0.00 | 0.00 | 0.00 | 63 | 1010.3 |
| 20260507083723 | 66 | 252 | 2.6 | 7.0 | 0.00 | 0.00 | 0.00 | 63 | 1010.3 |
| 20260507083206 | 66 | 247 | 0.9 | 6.1 | 0.00 | 0.00 | 0.00 | 62 | 1010.2 |
| 20260507082705 | 66 | 274 | 0.9 | 6.1 | 0.00 | 0.00 | 0.00 | 62 | 1010.1 |
| 20260507081205 | 66 | 236 | 0.9 | 5.2 | 0.00 | 0.00 | 0.00 | 63 | 1010.1 |
| 20260507080705 | 66 | 282 | 0.9 | 6.1 | 0.00 | 0.00 | 0.00 | 62 | 1010.1 |
| 20260507080206 | 66 | 228 | 0.9 | 7.0 | 0.00 | 0.00 | 0.00 | 63 | 1010.0 |
| 20260507075706 | 66 | 254 | 2.6 | 7.0 | 0.00 | 0.00 | 0.00 | 64 | 1010.0 |
| 20260507074706 | 65 | 273 | 2.6 | 7.0 | 0.00 | 0.00 | 0.00 | 66 | 1009.9 |
| 20260507074206 | 64 | 292 | 1.7 | 6.1 | 0.00 | 0.00 | 0.00 | 66 | 1009.9 |
| 20260507073706 | 64 | 240 | 2.6 | 6.1 | 0.00 | 0.00 | 0.00 | 66 | 1009.9 |
| 20260507073205 | 64 | 284 | 1.7 | 6.1 | 0.00 | 0.00 | 0.00 | 66 | 1009.9 |
| 20260507072706 | 64 | 284 | 0.9 | 4.3 | 0.00 | 0.00 | 0.00 | 66 | 1009.8 |
| 20260507072205 | 64 | 265 | 0.9 | 4.3 | 0.00 | 0.00 | 0.00 | 66 | 1009.8 |
| 20260507071705 | 64 | 245 | 0.9 | 4.3 | 0.00 | 0.00 | 0.00 | 66 | 1009.8 |
| 20260507071205 | 64 | 234 | 0.9 | 4.3 | 0.00 | 0.00 | 0.00 | 65 | 1009.7 |
| 20260507070705 | 64 | 224 | 0.9 | 4.3 | 0.00 | 0.00 | 0.00 | 66 | 1009.7 |
| 20260507065705 | 64 | 236 | 0.9 | 7.0 | 0.00 | 0.00 | 0.00 | 66 | 1009.5 |
| 20260507065205 | 64 | 243 | 1.7 | 7.0 | 0.00 | 0.00 | 0.00 | 66 | 1009.4 |
| 20260507064706 | 64 | 246 | 1.7 | 7.0 | 0.00 | 0.00 | 0.00 | 65 | 1009.5 |
| 20260507064206 | 64 | 231 | 0.9 | 7.0 | 0.00 | 0.00 | 0.00 | 65 | 1009.5 |
| 20260507063706 | 64 | 232 | 1.7 | 7.0 | 0.00 | 0.00 | 0.00 | 64 | 1009.5 |
| 20260507063206 | 64 | 275 | 1.7 | 6.1 | 0.00 | 0.00 | 0.00 | 64 | 1009.5 |
| 20260507062205 | 64 | 245 | 0.9 | 5.2 | 0.00 | 0.00 | 0.00 | 64 | 1009.4 |
| 20260507061206 | 64 | 284 | 0.9 | 5.2 | 0.00 | 0.00 | 0.00 | 66 | 1009.2 |
| 20260507055206 | 62 | 220 | 0.9 | 6.1 | 0.00 | 0.00 | 0.00 | 68 | 1009.0 |
| 20260507054705 | 62 | 223 | 0.9 | 6.1 | 0.00 | 0.00 | 0.00 | 68 | 1009.0 |
| 20260507053705 | 62 | 260 | 1.7 | 7.0 | 0.00 | 0.00 | 0.00 | 69 | 1008.9 |
| 20260507053230 | 62 | 208 | 0.9 | 5.2 | 0.00 | 0.00 | 0.00 | 69 | 1008.8 |
| 20260507052705 | 62 | 221 | 0.9 | 5.2 | 0.00 | 0.00 | 0.00 | 71 | 1008.8 |
| 20260507052205 | 61 | 203 | 0.9 | 5.2 | 0.00 | 0.00 | 0.00 | 70 | 1008.9 |
| 20260507051706 | 61 | 217 | 0.9 | 5.2 | 0.00 | 0.00 | 0.00 | 71 | 1008.8 |
| 20260507051205 | 61 | 227 | 0.9 | 5.2 | 0.00 | 0.00 | 0.00 | 71 | 1008.7 |
| 20260507050705 | 61 | 217 | 0.0 | 5.2 | 0.00 | 0.00 | 0.00 | 71 | 1008.7 |
| 20260507050206 | 61 | 238 | 0.9 | 5.2 | 0.00 | 0.00 | 0.00 | 72 | 1008.7 |
| 20260507045705 | 61 | 248 | 0.9 | 6.1 | 0.00 | 0.00 | 0.00 | 71 | 1008.7 |
| 20260507044705 | 60 | 239 | 1.7 | 6.1 | 0.00 | 0.00 | 0.00 | 72 | 1008.6 |
| 20260507044206 | 60 | 260 | 0.9 | 5.2 | 0.00 | 0.00 | 0.00 | 73 | 1008.5 |
| 20260507043705 | 60 | 256 | 0.9 | 5.2 | 0.00 | 0.00 | 0.00 | 73 | 1008.5 |
| 20260507043205 | 60 | 248 | 0.9 | 3.5 | 0.00 | 0.00 | 0.00 | 74 | 1008.4 |
| 20260507042206 | 59 | 241 | 0.0 | 0.9 | 0.00 | 0.00 | 0.00 | 73 | 1008.3 |
| 20260507041705 | 59 | 246 | 0.0 | 6.1 | 0.00 | 0.00 | 0.00 | 73 | 1008.2 |
| 20260507041205 | 59 | 236 | 0.9 | 6.1 | 0.00 | 0.00 | 0.00 | 73 | 1008.2 |
| 20260507040706 | 59 | 231 | 0.9 | 6.1 | 0.00 | 0.00 | 0.00 | 73 | 1008.1 |
| 20260507040205 | 59 | 265 | 0.0 | 2.6 | 0.00 | 0.00 | 0.00 | 73 | 1008.2 |
| 20260507035705 | 59 | 297 | 0.0 | 2.6 | 0.00 | 0.00 | 0.00 | 73 | 1008.2 |
| 20260507035223 | 59 | 254 | 0.0 | 1.7 | 0.00 | 0.00 | 0.00 | 73 | 1008.1 |
| 20260507034705 | 59 | 253 | 0.0 | 0.9 | 0.00 | 0.00 | 0.00 | 73 | 1008.1 |
| 20260507034206 | 59 | 238 | 0.0 | 2.6 | 0.00 | 0.00 | 0.00 | 73 | 1008.1 |
| 20260507033705 | 59 | 242 | 0.0 | 2.6 | 0.00 | 0.00 | 0.00 | 73 | 1008.1 |
| 20260507032705 | 59 | 218 | 0.0 | 2.6 | 0.00 | 0.00 | 0.00 | 73 | 1007.9 |
| 20260507031705 | 60 | 234 | 0.0 | 4.3 | 0.00 | 0.00 | 0.00 | 72 | 1007.9 |
| 20260507031205 | 60 | 215 | 0.0 | 6.1 | 0.00 | 0.00 | 0.00 | 72 | 1007.9 |
| 20260507030706 | 60 | 223 | 0.9 | 6.1 | 0.00 | 0.00 | 0.00 | 72 | 1008.0 |
| 20260507025705 | 59 | 217 | 0.9 | 6.1 | 0.00 | 0.00 | 0.00 | 73 | 1008.1 |
| 20260507024705 | 59 | 215 | 0.0 | 3.5 | 0.00 | 0.00 | 0.00 | 73 | 1008.1 |
| 20260507024205 | 59 | 221 | 0.0 | 1.7 | 0.00 | 0.00 | 0.00 | 73 | 1008.2 |
| 20260507023706 | 59 | 179 | 0.0 | 2.6 | 0.00 | 0.00 | 0.00 | 72 | 1008.1 |
| 20260507023206 | 59 | 178 | 0.0 | 2.6 | 0.00 | 0.00 | 0.00 | 72 | 1008.1 |
| 20260507022705 | 59 | 54 | 0.0 | 2.6 | 0.00 | 0.00 | 0.00 | 71 | 1008.0 |
| 20260507022205 | 60 | 254 | 0.0 | 2.6 | 0.00 | 0.00 | 0.00 | 71 | 1008.0 |
| 20260507021706 | 60 | 254 | 0.0 | 6.1 | 0.00 | 0.00 | 0.00 | 71 | 1007.9 |
| 20260507021206 | 60 | 256 | 0.9 | 6.1 | 0.00 | 0.00 | 0.00 | 70 | 1007.7 |
| 20260507020734 | 60 | 209 | 0.9 | 7.8 | 0.00 | 0.00 | 0.00 | 70 | 1007.6 |
| 20260507020205 | 60 | 215 | 1.7 | 7.8 | 0.00 | 0.00 | 0.00 | 70 | 1007.6 |
| 20260507015706 | 60 | 205 | 2.6 | 7.8 | 0.00 | 0.00 | 0.00 | 70 | 1007.5 |
| 20260507015205 | 60 | 209 | 1.7 | 7.0 | 0.00 | 0.00 | 0.00 | 70 | 1007.5 |
| 20260507014706 | 60 | 208 | 0.9 | 7.0 | 0.00 | 0.00 | 0.00 | 70 | 1007.6 |
| 20260507014205 | 60 | 228 | 0.0 | 3.5 | 0.00 | 0.00 | 0.00 | 70 | 1007.7 |
| 20260507013705 | 60 | 258 | 0.0 | 3.5 | 0.00 | 0.00 | 0.00 | 70 | 1007.9 |
| 20260507012706 | 60 | 229 | 0.0 | 5.2 | 0.00 | 0.00 | 0.00 | 70 | 1007.9 |
| 20260507012205 | 60 | 221 | 0.0 | 5.2 | 0.00 | 0.00 | 0.00 | 70 | 1007.6 |
| 20260507011205 | 60 | 227 | 0.9 | 6.1 | 0.00 | 0.00 | 0.00 | 69 | 1007.6 |
| 20260507010705 | 60 | 214 | 0.9 | 6.1 | 0.00 | 0.00 | 0.00 | 69 | 1007.4 |
| 20260507010206 | 60 | 215 | 0.0 | 1.7 | 0.00 | 0.00 | 0.00 | 69 | 1007.4 |
| 20260507005705 | 60 | 243 | 0.0 | 1.7 | 0.00 | 0.00 | 0.00 | 68 | 1007.4 |
| 20260507005205 | 61 | 240 | 0.0 | 2.6 | 0.00 | 0.00 | 0.00 | 68 | 1007.4 |
| 20260507004706 | 61 | 223 | 0.0 | 2.6 | 0.00 | 0.00 | 0.00 | 67 | 1007.3 |
| 20260507003706 | 61 | 215 | 0.9 | 7.8 | 0.00 | 0.00 | 0.00 | 67 | 1007.3 |
| 20260507003206 | 61 | 204 | 2.6 | 7.8 | 0.00 | 0.00 | 0.00 | 67 | 1007.3 |
| 20260507002706 | 61 | 199 | 4.3 | 12.2 | 0.00 | 0.00 | 0.00 | 66 | 1007.0 |
| 20260507002206 | 61 | 207 | 4.3 | 12.2 | 0.00 | 0.00 | 0.00 | 66 | 1007.2 |
| 20260507001706 | 61 | 217 | 3.5 | 12.2 | 0.00 | 0.00 | 0.00 | 66 | 1007.3 |
| 20260507001206 | 61 | 155 | 3.5 | 11.3 | 0.00 | 0.00 | 0.00 | 66 | 1007.3 |
| 20260507000706 | 61 | 187 | 3.5 | 11.3 | 0.00 | 0.00 | 0.00 | 67 | 1007.4 |
| 20260507000205 | 61 | 216 | 2.6 | 9.6 | 0.00 | 0.00 | 0.00 | 67 | 1007.4 |
| 20260506235205 | 61 | 206 | 1.7 | 9.6 | 0.00 | 0.00 | 0.00 | 66 | 1007.4 |
| 20260506234705 | 62 | 249 | 1.7 | 7.8 | 0.00 | 0.00 | 0.00 | 66 | 1007.5 |
| 20260506234206 | 62 | 202 | 1.7 | 9.6 | 0.00 | 0.00 | 0.00 | 66 | 1007.4 |
| 20260506233705 | 62 | 193 | 2.6 | 10.4 | 0.00 | 0.00 | 0.00 | 65 | 1007.4 |
| 20260506233205 | 62 | 198 | 2.6 | 10.4 | 0.00 | 0.00 | 0.00 | 65 | 1007.4 |
| 20260506232706 | 62 | 227 | 3.5 | 10.4 | 0.00 | 0.00 | 0.00 | 65 | 1007.4 |
| 20260506232205 | 62 | 173 | 3.5 | 13.9 | 0.00 | 0.00 | 0.00 | 65 | 1007.4 |
| 20260506231705 | 62 | 207 | 4.3 | 13.9 | 0.00 | 0.00 | 0.00 | 65 | 1007.3 |
| 20260506231206 | 62 | 182 | 4.3 | 9.6 | 0.00 | 0.00 | 0.00 | 65 | 1007.3 |
| 20260506230705 | 62 | 221 | 3.5 | 7.8 | 0.00 | 0.00 | 0.00 | 65 | 1007.3 |
| 20260506230206 | 62 | 211 | 2.6 | 8.7 | 0.00 | 0.00 | 0.00 | 65 | 1007.3 |
| 20260506225705 | 63 | 202 | 2.6 | 9.6 | 0.00 | 0.00 | 0.00 | 65 | 1007.3 |
| 20260506224706 | 63 | 207 | 3.5 | 9.6 | 0.00 | 0.00 | 0.00 | 65 | 1007.4 |
| 20260506224205 | 63 | 221 | 3.5 | 13.0 | 0.00 | 0.00 | 0.00 | 65 | 1007.4 |
| 20260506223705 | 63 | 202 | 3.5 | 13.0 | 0.00 | 0.00 | 0.00 | 65 | 1007.4 |
| 20260506223205 | 63 | 221 | 4.3 | 13.0 | 0.00 | 0.00 | 0.00 | 65 | 1007.2 |
| 20260506222705 | 63 | 217 | 3.5 | 12.2 | 0.00 | 0.00 | 0.00 | 64 | 1007.0 |
| 20260506222205 | 64 | 202 | 3.5 | 12.2 | 0.00 | 0.00 | 0.00 | 64 | 1007.0 |
| 20260506221706 | 64 | 220 | 2.6 | 12.2 | 0.00 | 0.00 | 0.00 | 64 | 1007.1 |
| 20260506221205 | 64 | 200 | 3.5 | 12.2 | 0.00 | 0.00 | 0.00 | 64 | 1007.1 |
| 20260506220705 | 64 | 219 | 4.3 | 12.2 | 0.00 | 0.00 | 0.00 | 63 | 1007.0 |
| 20260506215706 | 65 | 202 | 3.5 | 13.0 | 0.00 | 0.00 | 0.00 | 63 | 1007.1 |
| 20260506215205 | 65 | 266 | 3.5 | 13.0 | 0.00 | 0.00 | 0.00 | 63 | 1007.1 |
| 20260506214705 | 65 | 186 | 3.5 | 13.0 | 0.00 | 0.00 | 0.00 | 63 | 1007.1 |
| 20260506214206 | 65 | 196 | 2.6 | 12.2 | 0.00 | 0.00 | 0.00 | 63 | 1007.1 |
| 20260506213705 | 65 | 222 | 2.6 | 7.0 | 0.00 | 0.00 | 0.00 | 63 | 1007.3 |
| 20260506213206 | 65 | 192 | 1.7 | 7.0 | 0.00 | 0.00 | 0.00 | 63 | 1007.2 |
| 20260506212705 | 65 | 198 | 1.7 | 7.0 | 0.00 | 0.00 | 0.00 | 63 | 1007.1 |
| 20260506212206 | 65 | 211 | 0.9 | 7.0 | 0.00 | 0.00 | 0.00 | 63 | 1007.1 |
| 20260506211705 | 65 | 219 | 0.9 | 6.1 | 0.00 | 0.00 | 0.00 | 63 | 1007.1 |
| 20260506211206 | 64 | 223 | 0.9 | 5.2 | 0.00 | 0.00 | 0.00 | 63 | 1007.0 |
| 20260506210706 | 64 | 218 | 0.9 | 7.0 | 0.00 | 0.00 | 0.00 | 62 | 1006.9 |
| 20260506210206 | 65 | 209 | 0.9 | 7.0 | 0.00 | 0.00 | 0.00 | 62 | 1006.9 |
| 20260506205705 | 65 | 185 | 1.7 | 7.0 | 0.00 | 0.00 | 0.00 | 62 | 1006.7 |
| 20260506204705 | 65 | 213 | 1.7 | 11.3 | 0.00 | 0.00 | 0.00 | 61 | 1006.7 |
| 20260506204206 | 65 | 200 | 1.7 | 12.2 | 0.00 | 0.00 | 0.00 | 61 | 1006.7 |
| 20260506203705 | 65 | 218 | 2.6 | 12.2 | 0.00 | 0.00 | 0.00 | 61 | 1006.7 |
| 20260506202213 | 66 | 195 | 3.5 | 13.0 | 0.00 | 0.00 | 0.00 | 60 | 1006.7 |
| 20260506201705 | 66 | 217 | 4.3 | 10.4 | 0.00 | 0.00 | 0.00 | 60 | 1006.7 |
| 20260506200705 | 66 | 194 | 3.5 | 10.4 | 0.00 | 0.00 | 0.00 | 60 | 1006.7 |
| 20260506195705 | 66 | 198 | 3.5 | 11.3 | 0.00 | 0.00 | 0.00 | 60 | 1006.8 |
| 20260506195205 | 66 | 217 | 2.6 | 11.3 | 0.00 | 0.00 | 0.00 | 60 | 1006.7 |
| 20260506194706 | 66 | 211 | 2.6 | 9.6 | 0.00 | 0.00 | 0.00 | 60 | 1006.7 |
| 20260506194205 | 66 | 205 | 2.6 | 9.6 | 0.00 | 0.00 | 0.00 | 59 | 1006.7 |
| 20260506193705 | 66 | 221 | 1.7 | 8.7 | 0.00 | 0.00 | 0.00 | 59 | 1006.7 |
| 20260506193205 | 66 | 209 | 2.6 | 9.6 | 0.00 | 0.00 | 0.00 | 59 | 1006.8 |
| 20260506192705 | 66 | 208 | 2.6 | 9.6 | 0.00 | 0.00 | 0.00 | 58 | 1006.7 |
| 20260506192205 | 67 | 218 | 2.6 | 13.0 | 0.00 | 0.00 | 0.00 | 58 | 1006.6 |
| 20260506191705 | 67 | 192 | 4.3 | 13.0 | 0.00 | 0.00 | 0.00 | 57 | 1006.6 |
| 20260506191206 | 67 | 219 | 4.3 | 13.0 | 0.00 | 0.00 | 0.00 | 57 | 1006.5 |
| 20260506190729 | 67 | 202 | 3.5 | 12.2 | 0.00 | 0.00 | 0.00 | 57 | 1006.5 |
| 20260506190206 | 67 | 236 | 4.3 | 12.2 | 0.00 | 0.00 | 0.00 | 57 | 1006.3 |
| 20260506185706 | 67 | 196 | 4.3 | 12.2 | 0.00 | 0.00 | 0.00 | 56 | 1006.3 |
| 20260506184206 | 67 | 171 | 2.6 | 9.6 | 0.00 | 0.00 | 0.00 | 55 | 1006.1 |
| 20260506183705 | 67 | 209 | 3.5 | 13.9 | 0.00 | 0.00 | 0.00 | 55 | 1006.1 |
| 20260506182705 | 68 | 169 | 4.3 | 13.9 | 0.00 | 0.00 | 0.00 | 53 | 1006.0 |
| 20260506182205 | 68 | 225 | 4.3 | 13.0 | 0.00 | 0.00 | 0.00 | 53 | 1005.9 |
| 20260506181705 | 68 | 212 | 5.2 | 13.0 | 0.00 | 0.00 | 0.00 | 53 | 1005.9 |
| 20260506181205 | 68 | 215 | 5.2 | 13.9 | 0.00 | 0.00 | 0.00 | 52 | 1005.8 |
| 20260506180206 | 68 | 210 | 3.5 | 13.9 | 0.00 | 0.00 | 0.00 | 51 | 1006.0 |
| 20260506175706 | 68 | 194 | 1.7 | 12.2 | 0.00 | 0.00 | 0.00 | 51 | 1005.9 |
| 20260506175205 | 68 | 172 | 2.6 | 12.2 | 0.00 | 0.00 | 0.00 | 51 | 1005.9 |
| 20260506174705 | 68 | 263 | 3.5 | 12.2 | 0.00 | 0.00 | 0.00 | 51 | 1006.0 |
| 20260506174206 | 69 | 238 | 2.6 | 11.3 | 0.00 | 0.00 | 0.00 | 51 | 1006.0 |
| 20260506173706 | 69 | 209 | 3.5 | 14.8 | 0.00 | 0.00 | 0.00 | 51 | 1006.0 |
| 20260506173205 | 69 | 165 | 5.2 | 14.8 | 0.00 | 0.00 | 0.00 | 51 | 1006.0 |
| 20260506172706 | 69 | 177 | 6.1 | 14.8 | 0.00 | 0.00 | 0.00 | 51 | 1006.0 |
| 20260506172205 | 69 | 194 | 4.3 | 13.9 | 0.00 | 0.00 | 0.00 | 51 | 1006.0 |
| 20260506171705 | 69 | 223 | 5.2 | 13.9 | 0.00 | 0.00 | 0.00 | 51 | 1006.1 |
| 20260506171206 | 69 | 190 | 7.0 | 13.9 | 0.00 | 0.00 | 0.00 | 51 | 1006.2 |
| 20260506170705 | 69 | 175 | 5.2 | 10.4 | 0.00 | 0.00 | 0.00 | 51 | 1006.3 |
| 20260506170206 | 69 | 173 | 4.3 | 10.4 | 0.00 | 0.00 | 0.00 | 52 | 1006.3 |
| 20260506165705 | 69 | 209 | 4.3 | 10.4 | 0.00 | 0.00 | 0.00 | 52 | 1006.3 |
| 20260506165205 | 69 | 168 | 3.5 | 10.4 | 0.00 | 0.00 | 0.00 | 52 | 1006.4 |
| 20260506164705 | 70 | 153 | 3.5 | 11.3 | 0.00 | 0.00 | 0.00 | 52 | 1006.4 |
| 20260506164206 | 70 | 163 | 4.3 | 11.3 | 0.00 | 0.00 | 0.00 | 52 | 1006.3 |
| 20260506163705 | 70 | 164 | 4.3 | 10.4 | 0.00 | 0.00 | 0.00 | 52 | 1006.4 |
| 20260506163206 | 70 | 155 | 4.3 | 10.4 | 0.00 | 0.00 | 0.00 | 52 | 1006.3 |
| 20260506162705 | 70 | 213 | 3.5 | 7.0 | 0.00 | 0.00 | 0.00 | 51 | 1006.4 |
| 20260506162227 | 70 | 223 | 2.6 | 12.2 | 0.00 | 0.00 | 0.00 | 51 | 1006.4 |
| 20260506161717 | 70 | 194 | 2.6 | 14.8 | 0.00 | 0.00 | 0.00 | 51 | 1006.5 |
| 20260506161208 | 71 | 210 | 5.2 | 14.8 | 0.00 | 0.00 | 0.00 | 50 | 1006.5 |
| 20260506160705 | 71 | 209 | 6.1 | 14.8 | 0.00 | 0.00 | 0.00 | 49 | 1006.4 |
| 20260506160231 | 71 | 205 | 5.2 | 15.6 | 0.00 | 0.00 | 0.00 | 49 | 1006.5 |
| 20260506155730 | 71 | 185 | 5.2 | 17.4 | 0.00 | 0.00 | 0.00 | 49 | 1006.6 |
| 20260506155205 | 71 | 189 | 7.0 | 17.4 | 0.00 | 0.00 | 0.00 | 49 | 1006.6 |
| 20260506153705 | 72 | 168 | 7.0 | 20.9 | 0.00 | 0.00 | 0.00 | 48 | 1006.8 |
| 20260506153205 | 72 | 217 | 7.0 | 15.6 | 0.00 | 0.00 | 0.00 | 48 | 1006.7 |
| 20260506152705 | 72 | 229 | 6.1 | 16.5 | 0.00 | 0.00 | 0.00 | 49 | 1006.8 |
| 20260506152205 | 72 | 221 | 5.2 | 16.5 | 0.00 | 0.00 | 0.00 | 50 | 1006.8 |
| 20260506151706 | 71 | 190 | 5.2 | 16.5 | 0.00 | 0.00 | 0.00 | 50 | 1006.9 |
| 20260506151206 | 71 | 155 | 5.2 | 16.5 | 0.00 | 0.00 | 0.00 | 50 | 1006.8 |
| 20260506150706 | 72 | 213 | 4.3 | 16.5 | 0.00 | 0.00 | 0.00 | 48 | 1006.8 |
| 20260506150205 | 72 | 214 | 6.1 | 18.2 | 0.00 | 0.00 | 0.00 | 49 | 1007.0 |
| 20260506145705 | 72 | 149 | 7.8 | 18.2 | 0.00 | 0.00 | 0.00 | 49 | 1006.9 |
| 20260506145206 | 73 | 182 | 6.1 | 18.2 | 0.00 | 0.00 | 0.00 | 48 | 1007.0 |
| 20260506144207 | 73 | 197 | 4.3 | 13.0 | 0.00 | 0.00 | 0.00 | 49 | 1007.0 |
| 20260506143705 | 73 | 201 | 5.2 | 13.0 | 0.00 | 0.00 | 0.00 | 49 | 1007.0 |
| 20260506142705 | 74 | 235 | 6.1 | 15.6 | 0.00 | 0.00 | 0.00 | 47 | 1007.1 |
| 20260506142205 | 74 | 205 | 7.8 | 15.6 | 0.00 | 0.00 | 0.00 | 47 | 1007.1 |
| 20260506141705 | 73 | 212 | 8.7 | 15.6 | 0.00 | 0.00 | 0.00 | 48 | 1007.1 |
| 20260506141206 | 73 | 223 | 6.1 | 11.3 | 0.00 | 0.00 | 0.00 | 48 | 1007.1 |
| 20260506140705 | 73 | 203 | 4.3 | 11.3 | 0.00 | 0.00 | 0.00 | 48 | 1007.1 |
| 20260506140222 | 74 | 238 | 3.5 | 12.2 | 0.00 | 0.00 | 0.00 | 47 | 1007.0 |
| 20260506135706 | 74 | 224 | 4.3 | 12.2 | 0.00 | 0.00 | 0.00 | 47 | 1007.1 |
| 20260506135205 | 73 | 227 | 4.3 | 12.2 | 0.00 | 0.00 | 0.00 | 49 | 1007.0 |
| 20260506134705 | 72 | 227 | 4.3 | 9.6 | 0.00 | 0.00 | 0.00 | 49 | 1007.1 |
| 20260506134206 | 72 | 225 | 5.2 | 9.6 | 0.00 | 0.00 | 0.00 | 48 | 1007.1 |
| 20260506133205 | 73 | 202 | 4.3 | 12.2 | 0.00 | 0.00 | 0.00 | 48 | 1007.1 |
| 20260506132705 | 73 | 225 | 4.3 | 14.8 | 0.00 | 0.00 | 0.00 | 48 | 1007.0 |
| 20260506131721 | 74 | 186 | 5.2 | 14.8 | 0.00 | 0.00 | 0.00 | 47 | 1007.0 |
| 20260506131205 | 73 | 218 | 3.5 | 10.4 | 0.00 | 0.00 | 0.00 | 46 | 1007.0 |
| 20260506130205 | 74 | 220 | 4.3 | 10.4 | 0.00 | 0.00 | 0.00 | 46 | 1007.0 |
| 20260506125705 | 74 | 227 | 4.3 | 8.7 | 0.00 | 0.00 | 0.00 | 46 | 1007.0 |
| 20260506125205 | 75 | 202 | 3.5 | 8.7 | 0.00 | 0.00 | 0.00 | 44 | 1007.1 |
| 20260506124705 | 76 | 204 | 2.6 | 7.8 | 0.00 | 0.00 | 0.00 | 44 | 1007.0 |
| 20260506124205 | 76 | 227 | 2.6 | 7.8 | 0.00 | 0.00 | 0.00 | 45 | 1007.1 |
| 20260506123705 | 76 | 169 | 2.6 | 7.8 | 0.00 | 0.00 | 0.00 | 42 | 1007.0 |
| 20260506123206 | 77 | 214 | 1.7 | 10.4 | 0.00 | 0.00 | 0.00 | 43 | 1007.0 |
| 20260506122705 | 76 | 262 | 2.6 | 10.4 | 0.00 | 0.00 | 0.00 | 43 | 1007.0 |
| 20260506122205 | 77 | 205 | 2.6 | 9.6 | 0.00 | 0.00 | 0.00 | 43 | 1007.2 |
| 20260506121706 | 76 | 265 | 2.6 | 8.7 | 0.00 | 0.00 | 0.00 | 43 | 1007.2 |
| 20260506120205 | 75 | 198 | 2.6 | 7.8 | 0.00 | 0.00 | 0.00 | 44 | 1007.2 |
| 20260506115705 | 74 | 167 | 2.6 | 7.8 | 0.00 | 0.00 | 0.00 | 46 | 1007.2 |
| 20260506115206 | 74 | 246 | 2.6 | 8.7 | 0.00 | 0.00 | 0.00 | 46 | 1007.3 |
| 20260506114706 | 74 | 246 | 2.6 | 8.7 | 0.00 | 0.00 | 0.00 | 46 | 1007.2 |
| 20260506114206 | 74 | 215 | 2.6 | 8.7 | 0.00 | 0.00 | 0.00 | 45 | 1007.2 |
| 20260506113706 | 74 | 224 | 2.6 | 8.7 | 0.00 | 0.00 | 0.00 | 45 | 1007.3 |
| 20260506113206 | 75 | 205 | 2.6 | 7.0 | 0.00 | 0.00 | 0.00 | 44 | 1007.2 |
| 20260506112705 | 75 | 249 | 1.7 | 10.4 | 0.00 | 0.00 | 0.00 | 45 | 1007.3 |
| 20260506112205 | 76 | 223 | 2.6 | 10.4 | 0.00 | 0.00 | 0.00 | 45 | 1007.3 |
| 20260506111705 | 76 | 275 | 3.5 | 9.6 | 0.00 | 0.00 | 0.00 | 45 | 1007.4 |
| 20260506111205 | 75 | 225 | 3.5 | 8.7 | 0.00 | 0.00 | 0.00 | 45 | 1007.4 |
| 20260506110731 | 76 | 216 | 2.6 | 9.6 | 0.00 | 0.00 | 0.00 | 45 | 1007.5 |
| 20260506110206 | 76 | 257 | 1.7 | 9.6 | 0.00 | 0.00 | 0.00 | 45 | 1007.4 |
| 20260506105705 | 76 | 282 | 1.7 | 9.6 | 0.00 | 0.00 | 0.00 | 46 | 1007.4 |
| 20260506105205 | 76 | 214 | 1.7 | 7.0 | 0.00 | 0.00 | 0.00 | 46 | 1007.4 |
| 20260506103706 | 76 | 234 | 1.7 | 5.2 | 0.00 | 0.00 | 0.00 | 45 | 1007.6 |
| 20260506103205 | 76 | 238 | 1.7 | 6.1 | 0.00 | 0.00 | 0.00 | 45 | 1007.5 |
| 20260506102705 | 76 | 252 | 0.9 | 9.6 | 0.00 | 0.00 | 0.00 | 45 | 1007.5 |
| 20260506102206 | 75 | 236 | 0.9 | 9.6 | 0.00 | 0.00 | 0.00 | 45 | 1007.5 |
| 20260506101205 | 75 | 191 | 1.7 | 1.7 | 0.00 | 0.00 | 0.00 | 47 | 1007.6 |
| 20260506095706 | 74 | 233 | 0.9 | 6.1 | 0.00 | 0.00 | 0.00 | 47 | 1007.9 |